sat.trackr.live / text

‹ back to catalog

STARLINK-35273

NORAD 65805 · 2025-218Q

PAYLOAD ACTIVE UNKNOWN

§ Identity

Operator
Country
US
Launch date
2025-09-26
Launch site
AFWTR
Launch vehicle
Mass (kg)
RCS (m²)

Purposes: comms

External: N2YO · Heavens-Above · Gunter

§ Orbital elements

Epoch: 2026-05-25T02:11:23.464320Z

Period
95.64 min
Inclination
97.4534°
Eccentricity
0.0002102
Mean motion
15.05658865 rev/d
Perigee alt
548.0 km
Apogee alt
550.9 km
Semi-major
6,927.6 km
B*
2.3945e-4
RAAN
7.8488°
Arg perigee
84.4020°
Mean anomaly
275.7447°
Rev number
3,646

§ Raw data

STARLINK-352731 65805U 25218Q   26145.09124380  .00003399  00000+0  23945-3 0  99962 65805  97.4534   7.8488 0002102  84.4020 275.7447 15.05658865 36460

JSON: /api/v1/satellites/65805 · /tle

For live sub-satellite position, see the globe view (requires WebGL).

§ Visibility from observer

Set your observer location to see the next 7 days of passes ≥ 10°. The values pass through the URL so the page stays shareable.

No JS? Fill the form by hand. The geolocation button needs JavaScript.